Location: Владивосток
(43.1151°N, 131.8856°E)
Time: 23:05:52
(UTC+10:00)

First-Move - Pass Details

Date: 08 July 2022
Orbit: 572 x 658 km, 97.6° (Epoch: 14 August)

Event Time Altitude Azimuth Distance (km) Brightness Sun altitude
Rises 04:53:53 0° 17° (NNE) 2,977 ? -7.7°
Reaches altitude 10° 04:56:10 10° 23° (NNE) 2,070 ? -7.4°
Maximum altitude 05:00:34 49° 99° (E) 847 ? -6.8°
Drops below altitude 10° 05:04:57 10° 175° (S) 2,067 ? -6.1°
Sets 05:07:13 0° 180° (S) 2,973 ? -5.8°
